Content
SEND FEEDBACK

Daily
Averages
Monthly
Summary
Fiji

LAUTHALA BAY, FIJI


Home > Oceania > Fiji
Elevation: 30 feet     Latitude: 18 01N     Longitude: 178 27E

WEATHER
 
SELECT A DAY
Number of Records: 149,518;   Date Range: 1/30/98 - 8/31/14
 
SHARE

PRINT THIS DATA

[ ← Previous Day ]
WEATHER ALMANAC - FEBRUARY 13, 2013
[ Next Day → ]
[ °C ]   °F
Weather ElementAverageHighLow
Temperature80.8 °F89.6 °F (1:00 pm)73.4 °F (5:00 am)
Dewpoint75.2 °F78 °F (9:00 pm)73 °F (12:00 pm)
Humidity83.3 %100 % (1:00 am)54 % (12:00 pm)
Barometer29.84 in29.89 in (9:00 pm)29.77 in (3:00 pm)
Wind Speed1.8 mph11.5 mph (2:00 pm)
Weather ElementAverage
Visibility27.5 mi
Wind DirectionNNE (21.5 °)

Weather ElementTotal
Precipitation---
Cooling Degree Days16.5 (Base 65)
Growing Degree Days31.5 (Base 50)
Averaged from 31 records on February 13, 2013
WEATHER CONDITIONS BREAKOUT
WIND DIRECTION BREAKOUT
WEATHER BY HOUR - FEBRUARY 13, 2013
[ °C ]   °F
Local TimeTemperatureDewpointHumidityBarometerVisibilityWind DirectionWind SpeedGust SpeedPrecipitationEventsConditions
12:00 AM77.0 °F75.2 °F94 %29.86 in24.9 miCalmScattered Clouds
1:00 AM75.2 °F75.2 °F100 %29.83 in24.9 miCalmScattered Clouds
2:00 AM75.2 °F75.2 °F100 %29.83 in24.9 miCalmScattered Clouds
3:00 AM75.0 °F74.0 °F97 %29.83 in12.0 miCalmPartly Cloudy
3:00 AM75.2 °F75.2 °F100 %29.83 in24.9 miCalmPartly Cloudy
4:00 AM75.2 °F75.2 °F100 %29.83 in24.9 miCalmPartly Cloudy
5:00 AM73.4 °F73.4 °F100 %29.83 in24.9 miCalmPartly Cloudy
6:00 AM73.4 °F73.4 °F100 %29.83 in31.1 miCalmPartly Cloudy
6:00 AM74.0 °F74.0 °F98 %29.84 in31.0 miCalmPartly Cloudy
7:00 AM75.2 °F73.4 °F94 %29.83 in31.1 miCalmPartly Cloudy
8:00 AM78.8 °F75.2 °F89 %29.86 in31.1 miCalmPartly Cloudy
9:00 AM82.0 °F76.0 °F77 %29.88 in31.0 miCalmPartly Cloudy
9:00 AM82.4 °F75.2 °F79 %29.86 in31.1 miCalmPartly Cloudy
10:00 AM86.0 °F77.0 °F74 %29.86 in31.1 miCalmScattered Clouds
11:00 AM87.8 °F75.2 °F66 %29.83 in31.1 miEast (100°)5.8 mphScattered Clouds
12:00 PM87.8 °F75.2 °F66 %29.80 in31.1 miEast (100°)5.8 mphScattered Clouds
12:00 PM88.0 °F73.0 °F54 %29.82 in31.0 miEast (100°)5.8 mphPartly Cloudy
1:00 PM89.6 °F73.4 °F59 %29.83 in31.1 miEast (100°)5.8 mphScattered Clouds
2:00 PM89.6 °F77.0 °F66 %29.80 in31.1 miNE (40°)11.5 mphScattered Clouds
3:00 PM88.0 °F74.0 °F54 %29.79 in31.0 miENE (60°)9.2 mphPartly Cloudy
3:00 PM87.8 °F73.4 °F62 %29.77 in31.1 miENE (60°)9.2 mphScattered Clouds
4:00 PM84.2 °F75.2 °F74 %29.80 in31.1 miNorthMostly Cloudy
5:00 PM86.0 °F77.0 °F74 %29.80 in31.1 miCalmMostly Cloudy
6:00 PM82.4 °F75.2 °F79 %29.83 in31.1 miCalmMostly Cloudy
6:00 PM82.0 °F76.0 °F77 %29.83 in31.0 miCalmPartly Cloudy
7:00 PM80.6 °F77.0 °F89 %29.83 in28.0 miCalmScattered Clouds
8:00 PM80.6 °F77.0 °F89 %29.86 in24.9 miCalmScattered Clouds
9:00 PM79.0 °F78.0 °F94 %29.89 in12.0 miCalmRainLight Rain Showers
9:00 PM78.8 °F77.0 °F94 %29.89 in18.6 miCalmRainLight Rain Showers
10:00 PM77.0 °F73.4 °F89 %29.89 in24.9 miCalmScattered Clouds
11:00 PM77.0 °F75.2 °F94 %29.89 in24.9 miCalmScattered Clouds
Hourly data recorded from NFNA, located miles away from Lauthala Bay, Fiji







STORIES FROM OUR PARTNERS